sat.trackr.live / text

‹ back to catalog

STARLINK-36132

NORAD 67028 · 2025-293AB

PAYLOAD ACTIVE UNKNOWN

§ Identity

Operator
Country
US
Launch date
2025-12-10
Launch site
AFWTR
Launch vehicle
Mass (kg)
RCS (m²)

Purposes: comms

External: N2YO · Heavens-Above · Gunter

§ Orbital elements

Epoch: 2026-09-20T11:43:00.293376Z

Period
96.11 min
Inclination
70.0037°
Eccentricity
0.0003615
Mean motion
14.98332729 rev/d
Perigee alt
569.5 km
Apogee alt
574.6 km
Semi-major
6,950.2 km
B*
4.1989e-5
RAAN
323.4214°
Arg perigee
268.9989°
Mean anomaly
91.0756°
Rev number
4,406

§ Raw data

STARLINK-361321 67028U 25293AB  26263.48819784  .00000408  00000+0  41989-4 0  99982 67028  70.0037 323.4214 0003615 268.9989  91.0756 14.98332729 44067

JSON: /api/v1/satellites/67028 · /tle

For live sub-satellite position, see the globe view (requires WebGL).

§ Visibility from observer

Set your observer location to see the next 7 days of passes ≥ 10°. The values pass through the URL so the page stays shareable.

No JS? Fill the form by hand. The geolocation button needs JavaScript.